User: anonymous   Login
Location: Vancouver
(49.2500°N, 123.1330°W)
Time: 19:39:06
(UTC-08:00)
Language:

Cosmos 1408 Rocket - Orbit

View from above orbital plane
View from above orbital plane
View from above satellite
View from above satellite

Ground track
Ground track

The orbit data is extracted from the following two-line orbital elements,

1 13553U 82092B   14352.19474679  .00000454  00000-0  51836-4 0   979
2 13553 082.5680 003.5852 0022203 174.0128 233.4603 14.83717719741789
Epoch (UTC): 18 December 2014 04:40:26
Eccentricity: 0.0022203
inclination: 82.5680°
perigee height: 602 km
apogee height: 633 km
right ascension of ascending node: 3.5852°
argument of perigee: 174.0128°
revolutions per day: 14.83717719
mean anomaly at epoch: 233.4603°
orbit number at epoch: 74178

The dashed part of the orbit path shows where the satellite is in the earth's shadow,  

DLR